Simultaneous Nadir Overpasses (SNOs) Predictions

Prediction of SNOs between GOES-17 and TERRA Satellite Orbit:

Table of predicted SNOs for the next 14.0 days since TLE Epoch: 1/23/2022
Index Date Time (GOES-17) GOES-17 Lat,Lon TERRA Lat,Lon Distance(km) Time Diff (sec)
1 01/23/2022 19:30:15 0.01,-137.23 -0.04,-137.08 18.69 80
2 01/25/2022 19:18:01 0.01,-137.23 -0.66,-134.12 354.17 80
3 01/26/2022 07:42:03 -0.01,-137.22 -0.47,-139.31 237.48 80
4 01/28/2022 07:27:09 -0.00,-137.21 0.15,-136.35 96.83 80
5 01/28/2022 19:51:04 0.00,-137.21 0.93,-141.51 489.34 80
6 01/30/2022 07:14:56 0.01,-137.18 0.79,-133.40 430.21 80
7 01/30/2022 19:38:50 -0.01,-137.19 0.30,-138.56 156.11 80
8 02/01/2022 19:26:36 0.01,-137.16 -0.34,-135.60 177.46 80
9 02/02/2022 07:45:19 -0.01,-137.15 -0.79,-140.79 414.55 80
10 02/04/2022 07:33:05 -0.02,-137.12 -0.14,-137.84 81.12 80
